Location: Unspecified
(50.0760°N, 14.4380°E)
Time: 15:16:37
(UTC+00:00)

Daily predictions for brighter satellites

Satellite Brightness Start Highest point End
(mag) Time Altitude Azimuth Time Altitude Azimuth Time Altitude Azimuth
CZ-4C R/B 3.8 16:51:17 10° NW 16:56:44 28° NNE 17:02:52 10° ENE
Cosmos 1452 Rocket 4.0 16:52:43 10° NNW 16:57:43 41° ENE 17:02:41 10° SE
Cosmos 2123 Rocket 4.0 16:52:20 10° S 16:58:30 79° E 17:04:42 10° NNE
SPOT 3 Rocket 3.7 16:54:49 10° SE 16:59:54 56° ENE 17:05:01 10° N
NOSS 0 Rocket 4.4 16:57:57 10° NW 17:04:07 70° WSW 17:10:16 10° SSE
USA 238 DEB 3.8 16:59:11 10° SSW 17:06:04 78° SE 17:13:05 10° NE
USA 238 3.8 16:59:17 10° SSW 17:06:10 78° SE 17:13:11 10° NE
BREEZE-M DEB (TANK) 1.6 17:03:40 10° W 17:06:30 68° S 17:08:57 10° ESE
EO 1 Del DPAF 4.1 17:05:26 10° NE 17:08:52 30° E 17:12:15 10° SSE
Cosmos 2219 Rocket 3.4 17:03:40 10° NW 17:09:06 47° WSW 17:14:29 10° S
MOS 1 4.3 17:04:15 10° SSE 17:09:55 83° ENE 17:15:38 10° NNW
Cosmos 724 4.4 17:05:38 10° SW 17:11:28 82° NW 17:17:19 10° NE
MTI 4.1 17:08:36 10° NNE 17:11:41 42° E 17:14:43 10° S
BREEZE-M R/B 3.0 17:10:59 10° W 17:12:57 56° SSW 17:16:51 10° ESE
Iridium 4 Rocket 4.2 17:09:13 10° NNE 17:13:36 28° ENE 17:17:38 10° SE
ATLAS CENTAUR R/B 3.4 17:11:51 10° NNW 17:13:55 14° NNE 17:16:02 10° NE
Iridium 2 4.4 17:11:47 10° NNW 17:15:35 60° W 17:19:21 10° S
Tiangong 2 3.4 17:14:17 10° WSW 17:16:34 18° SSW 17:18:51 10° SE
Lacrosse 5 3.2 17:13:58 10° WNW 17:18:42 40° SW 17:23:24 10° SSE
NOAA 12 4.2 17:13:28 10° SSE 17:18:47 89° WSW 17:24:09 10° NNW
Cosmos 1420 Rocket 4.2 17:14:34 10° NNW 17:19:42 49° ENE 17:24:51 10° SE
Cosmos 1674 Rocket 3.7 17:15:54 10° N 17:20:11 52° ENE 17:24:25 10° SSE
ALOS 2.7 17:15:50 10° S 17:20:30 70° WSW 17:25:12 10° NNW
Cosmos 2237 Rocket 2.6 17:17:19 10° NNW 17:22:55 68° WSW 17:28:30 10° SSE
Cosmos 44 3.3 17:18:22 10° NW 17:23:19 74° NE 17:28:31 10° SE
Landsat 4 3.8 17:19:41 10° NNE 17:23:22 51° ESE 17:27:02 10° S
Cosmos 2219 3.5 17:18:56 10° SW 17:24:32 74° WNW 17:30:14 10° NNE
FREGAT/IRIS 3.0 17:22:33 10° SE 17:25:19 38° ENE 17:28:08 10° N
SL-16 R/B 2.2 17:20:13 10° NNW 17:25:53 62° ENE 17:31:29 10° SE
Cosmos 1680 Rocket 4.3 17:20:42 10° SW 17:25:55 55° WNW 17:31:11 10° NNE
Cosmos 2227 Rocket 2.3 17:20:58 10° S 17:26:27 54° ESE 17:31:58 10° NE
USA 215 4.2 17:24:58 11° ENE 17:30:18 29° SE 17:35:47 10° S
Cosmos 1908 Rocket 4.4 17:28:09 10° SSE 17:32:01 29° E 17:35:53 10° NNE
YAOGAN 1 4.3 17:29:04 10° SSW 17:33:06 38° W 17:37:11 10° NNW
FENGYUN 3A 4.3 17:27:58 10° S 17:33:18 61° WSW 17:38:42 10° NNW
CZ-2C R/B 4.2 17:29:43 10° N 17:34:10 62° WNW 17:38:31 10° SSW
DMSP B5D1-3 4.5 17:29:26 10° NNE 17:34:34 65° ESE 17:39:40 10° S
DNEPR-1 R/B 3.7 17:31:42 10° SSW 17:35:45 49° ESE 17:39:55 11° NE
Cosmos 2233 Rocket 4.4 17:31:17 10° NNW 17:37:34 70° W 17:43:45 10° S
Cosmos 921 Rocket 3.6 17:34:04 10° N 17:38:19 38° ENE 17:42:31 10° SE
Okean 3 3.4 17:34:36 10° N 17:38:47 65° ENE 17:42:56 10° SSE
Cosmos 1733 Rocket 2.9 17:35:30 10° S 17:39:47 74° E 17:44:07 10° NNE
Cosmos 2297 Rocket 2.2 17:35:04 10° S 17:40:36 60° ESE 17:46:11 10° NE
SKYMED 2 4.1 17:38:02 10° N 17:42:20 62° WNW 17:46:38 10° SSW
NOSS 3-2 (C) 3.5 17:36:48 10° SSW 17:42:42 62° SE 17:49:19 10° NE
Cosmos 1603 4.4 17:38:42 10° NNW 17:43:55 35° NE 17:47:35 17° ESE
SJ-6B 2.9 17:40:41 10° SE 17:44:19 47° ENE 17:48:03 10° N
Cosmos 405 2.8 17:41:54 10° S 17:45:23 68° E 17:48:54 10° NNE
Meteor 1-18 Rocket 4.2 17:42:05 10° N 17:47:43 67° ENE 17:53:14 10° SSE
Thor Agena Rocket 4.1 17:43:15 10° NNE 17:47:51 32° E 17:52:21 10° SSE
Resurs 01 Rocket 2.4 17:48:59 18° ESE 17:51:23 30° ENE 17:55:15 10° N
Okean 1 3.5 17:49:08 10° N 17:53:02 47° ENE 17:56:53 10° SSE
Cosmos 1464 Rocket 3.9 17:47:30 10° N 17:53:41 74° E 17:59:47 10° SSE
Cosmos 1975 Rocket 3.6 17:50:01 10° N 17:54:09 38° ENE 17:57:44 13° SE
Envisat 3.1 17:53:14 10° SE 17:58:11 55° ENE 18:03:10 10° N
Cosmos 2084 Rocket 3.4 17:54:14 10° SW 17:58:35 88° NW 18:01:42 17° NE
ARGOS Delta rocket 4.3 17:53:59 10° NNE 17:58:37 37° E 18:02:59 10° SSE
USA 32 4.2 17:55:08 10° SSE 18:00:07 47° E 18:05:08 10° NNE
SeaSat 1 2.4 17:57:46 10° SSE 18:02:43 87° ENE 18:07:41 10° NNW
H-2A R/B 3.7 17:59:03 10° S 18:02:52 51° W 18:06:42 10° NNW
Cosmos 1072 Rocket 4.5 17:58:07 10° N 18:04:20 87° W 18:10:35 10° S
Meteor 1-19 Rocket 4.4 17:59:47 10° N 18:05:06 46° ENE 18:09:43 14° SE
USA 267 3.3 18:02:14 21° ESE 18:06:46 71° NNE 18:13:17 10° WNW
Cosmos 1110 Rocket 4.5 18:01:47 10° NNW 18:06:46 40° ENE 18:08:58 27° ESE
Meteor 1-25 Rocket 4.1 18:01:50 10° S 18:07:20 70° E 18:12:53 10° NNE
Cosmos 2082 3.6 18:02:16 10° SSW 18:07:54 84° ESE 18:13:36 10° NNE
YAOGAN 6 3.4 18:10:17 31° NE 18:10:17 31° NE 18:13:07 10° N
CENTAUR R/B 2.8 18:06:50 10° S 18:12:37 46° ESE 18:17:20 18° NE
Meteor 2-4 Rocket 4.2 18:08:05 10° N 18:13:37 40° ENE 18:16:08 27° ESE
CZ-2D R/B 3.2 18:13:22 10° SSE 18:17:16 90° SE 18:21:13 10° NNW
Cosmos 1812 4.2 18:13:52 10° NNW 18:17:31 39° W 18:21:08 10° SSW
H-2A R/B 3.8 18:20:09 17° NE 18:20:09 17° NE 18:22:54 10° NNE
Cosmos 1378 Rocket 3.9 18:15:09 10° NNW 18:19:32 67° W 18:23:55 10° S
Aureole 3 4.4 18:18:07 10° SSW 18:23:55 65° WNW 18:28:27 10° N
ERS-2 3.8 18:21:27 10° SSW 18:24:52 35° W 18:28:18 10° NNW
Sich 1 Rocket 3.5 18:20:23 10° S 18:24:52 73° E 18:29:21 10° NNE
Cosmos 44 Rocket 4.2 18:23:11 10° NW 18:28:03 49° WSW 18:32:44 11° SSE
Cosmos 2034 Rocket 4.0 18:21:46 10° N 18:28:12 86° W 18:34:34 10° S
Cosmos 1782 Rocket 3.5 18:25:02 10° S 18:29:25 63° E 18:33:48 10° NNE
Cosmos 1633 3.1 18:27:56 10° SSW 18:31:27 58° WNW 18:35:01 10° N
USA 186 1.8 18:32:00 69° N 18:32:00 69° N 18:35:01 10° N
SJ-11-01 4.3 18:34:31 48° ESE 18:35:28 57° ENE 18:40:08 10° N
ARGOS 4.2 18:39:12 28° NE 18:39:12 28° NE 18:43:02 10° N
ATLAS 3B R/B 3.6 18:33:44 10° WSW 18:40:32 45° NNW 18:46:39 12° NE
NOSS 3-2 (A) 4.1 18:35:04 10° WSW 18:41:07 57° NW 18:47:07 14° NE
Cosmos 1331 Rocket 4.0 18:35:51 10° NNW 18:41:09 64° ENE 18:42:18 50° ESE
Cosmos 1634 Rocket 4.0 18:36:43 10° N 18:42:47 56° ENE 18:44:40 41° SE
Cosmos 1437 Rocket 2.7 18:39:09 10° S 18:43:13 80° E 18:47:21 10° NNE
Cosmos 1939 Rocket 2.8 18:43:45 69° SSE 18:44:13 83° ENE 18:48:21 10° NNW
CZ-4C R/B 3.0 18:40:03 10° NW 18:46:42 55° NE 18:49:00 41° E
Geosat 4.0 18:47:25 54° SE 18:47:25 54° SE 18:52:03 10° SSW
Spot 2 Rocket 3.3 18:46:30 41° SSE 18:48:19 81° ENE 18:53:26 10° NNW
Cosmos 2346 Rocket 4.4 18:43:33 10° S 18:49:40 63° E 18:55:45 10° NNE
Cosmos 1816 Rocket 4.4 18:44:13 10° S 18:50:33 74° E 18:56:55 10° NNE
NOAA 11 4.1 18:50:39 56° E 18:51:10 59° ENE 18:56:31 10° N
Cosmos 1048 Rocket 3.9 18:46:25 10° SSW 18:51:46 86° ESE 18:56:39 12° NNE
Cosmos 1943 3.2 18:47:40 10° NNW 18:53:17 60° NE 18:53:50 57° E
ATLAS CENTAUR R/B 2.4 18:50:01 10° NNW 18:52:53 35° N 18:52:53 35° N
ERS-1 Rocket 4.4 18:56:20 24° NNE 18:56:20 24° NNE 18:58:53 10° N
Meteor 1-23 Rocket 4.3 18:50:43 10° N 18:56:26 55° ENE 18:56:30 55° ENE
Cosmos 158 Rocket 4.4 18:55:26 10° SW 19:00:14 57° WNW 19:05:05 10° NNE
Meteor 1-13 Rocket 4.2 18:58:40 10° NNW 19:04:14 76° W 19:06:53 32° S
Cosmos 1302 Rocket 4.2 19:03:55 10° NNW 19:08:23 56° NNE 19:08:23 56° NNE
SL-16 R/B 4.2 19:05:00 10° NW 19:09:35 26° WSW 19:14:10 10° SSW
Cosmos 2227 Rocket 3.7 19:05:41 10° WSW 19:10:46 33° NW 19:15:54 10° NNE
USA 215 3.1 19:12:20 55° ENE 19:13:57 81° SSE 19:20:31 10° SW
Cosmos 2297 Rocket 3.9 19:20:01 10° WSW 19:25:01 31° NW 19:30:04 10° NNE
Tsikada Rocket 4.5 19:19:24 10° SSW 19:25:45 61° WNW 19:32:08 10° N
Resurs 01 Rocket 3.1 19:26:33 29° SW 19:27:47 35° W 19:31:52 10° NNW
Cosmos 1603 4.4 19:22:47 10° NW 19:28:15 50° WSW 19:29:32 42° SSW
USA 267 3.6 19:49:35 51° SSW 19:49:59 52° SW 19:56:21 10° WNW
Meteor 1-11 Rocket 4.4 19:55:00 51° NW 19:55:00 51° NW 20:00:02 10° N
H-2A R/B 3.6 20:00:46 31° NNW 20:00:46 31° NNW 20:03:34 10° NNW
CENTAUR R/B 3.2 19:57:00 10° WSW 20:03:13 54° NW 20:04:37 47° N
ATLAS 3B R/B 4.2 20:27:13 10° WNW 20:32:56 26° N 20:33:55 25° N
CZ-4C R/B 3.6 20:28:38 10° NW 20:34:13 48° W 20:34:13 48° W
